Location: Montclair
(37.8322°N, 122.2092°W)
Time: 15:40:47
(UTC+00:00)

SL-16 R/B - Pass Details

Date: 08 September 2024
Orbit: 985 x 1006 km, 99.7° (Epoch: 07 October)

Event Time Altitude Azimuth Distance (km) Brightness Sun altitude
Exits shadow 12:28:56 19° 273° (W) 2,152 3.8 -15.5°
Drops below altitude 10° 12:32:45 10° 312° (NW) 2,769 4.6 -14.8°
Sets 12:36:02 0° 329° (NNW) 3,727 5.4 -14.1°
